sat.trackr.live / text

‹ back to catalog

STARLINK-33931

NORAD 64006 · 2025-101N

PAYLOAD ACTIVE UNKNOWN

§ Identity

Operator
Country
US
Launch date
2025-05-14
Launch site
AFETR
Launch vehicle
Mass (kg)
RCS (m²)

Purposes: comms

External: N2YO · Heavens-Above · Gunter

§ Orbital elements

Epoch: 2026-05-24T21:25:27.214176Z

Period
94.27 min
Inclination
42.9998°
Eccentricity
0.0001555
Mean motion
15.27590079 rev/d
Perigee alt
482.0 km
Apogee alt
484.1 km
Semi-major
6,861.2 km
B*
1.1222e-3
RAAN
287.2486°
Arg perigee
286.4108°
Mean anomaly
73.6572°
Rev number
5,873

§ Raw data

STARLINK-339311 64006U 25101N   26144.89267609  .00030756  00000+0  11222-2 0  99992 64006  42.9998 287.2486 0001555 286.4108  73.6572 15.27590079 58739

JSON: /api/v1/satellites/64006 · /tle

For live sub-satellite position, see the globe view (requires WebGL).

§ Visibility from observer

Set your observer location to see the next 7 days of passes ≥ 10°. The values pass through the URL so the page stays shareable.

No JS? Fill the form by hand. The geolocation button needs JavaScript.